パンスターズ彗星

C/2019 U5 ( PanSTARRS )

English version
Home page
Updated on September 11, 2022

---------------------------------------------------------------------

・ プロフィール

発見日 2019年10月22日
発見光度 21.1等
発見者 Pan-STARRS 1 telescope (Haleakala)

・ 写真集

・ 軌道要素

Epoch 2022 Aug. 9.0 TT = JDT 2459800.5
T 2023 Mar. 29.92681 TT                                 Rudenko
q   3.6239677            (2000.0)            P               Q
z  -0.0003876      Peri.  181.51305     -0.99907753     +0.00802099
 +/-0.0000009      Node     2.63711     -0.02291016     +0.73135593
e   1.0014048      Incl.  113.52124     -0.03632102     -0.68194880
From 2936 observations 2019 Oct. 11-2022 Sept. 2, mean residual 0".4.

・ 星図

・ 光度変化

        m1 = 3.5 + 5 logΔ + 11.0 log r

---------------------------------------------------------------------

軌道要素はM.P.E.C. 2022-R68に掲載されたものです。
星図はステラナビゲータ Ver.10 (アストロアーツ) で作成したものです。
光度グラフはComet for Windowsで作成したものです。

---------------------------------------------------------------------

Copyright(C) Seiichi Yoshida (comet@aerith.net). All rights reserved.